Hutchinson, KS

10:57 AM CDT on March 27, 2017 (GMT -0500)
Hutchinson Municipal

Weather History for KHUT - July, 2013

Change the Weather History Date:

Monday, July 8, 2013

  Actual Average Record
Temperature  
Mean Temperature 88 °F -  
Max Temperature 102 °F 89 °F 102 °F (2013)
Min Temperature 75 °F 65 °F 59 °F (2015)
Cooling Degree Days 22    
Growing Degree Days 38 (Base 50)    
Moisture  
Dew Point 62 °F    
Average Humidity 44    
Maximum Humidity 69    
Minimum Humidity 24    
Precipitation  
Precipitation 0.00 in - - ()
Sea Level Pressure  
Sea Level Pressure 29.93 in    
Wind  
Wind Speed 13 mph (South)    
Max Wind Speed 21 mph    
Max Gust Speed 32 mph    
Visibility 10 miles    
Events      
Averages and records for this station are not official NWS values.
T = Trace of Precipitation, MM = Missing Value Source: NWS Daily Summary

Daily Weather History Graph

Daily Weather History Graph

Search for Another Location

Airport or City:

Trip Planner

Search our weather history database for the weather conditions in past years. The results will help you decide how hot, cold, wet, or windy it might be!

Date:

Astronomy

Jul. 08, 2013 Rise Set
Actual Time 6:16 AM CDT 8:56 PM CDT
Civil Twilight 5:45 AM CDT 9:27 PM CDT
Nautical Twilight 5:06 AM CDT 10:06 PM CDT
Astronomical Twilight 4:22 AM CDT 10:49 PM CDT
Moon 6:45 AM CDT (7/8) 9:01 PM CDT (7/8)
Length of Visible Light 15h 42m
Length of Day
14h 40m
New Moon, 0% of the Moon is Illuminated
Jul 8
New Moon
Jul 15
First Quarter
Jul 22
Full
Jul 29
Last Quarter
Aug 6
New

Hourly Weather History & Observations

Time (CDT) Temp. Heat Index Dew Point Humidity Pressure Visibility Wind Dir Wind Speed Gust Speed Precip Events Conditions
12:52 AM 82.0 °F 83.1 °F 63.0 °F 52% 29.92 in 10.0 mi South 15.0 mph - N/A   Clear
1:52 AM 81.0 °F 82.2 °F 63.0 °F 54% 29.92 in 10.0 mi South 12.7 mph - N/A   Clear
2:52 AM 80.1 °F 81.5 °F 63.0 °F 56% 29.92 in 10.0 mi South 11.5 mph - N/A   Clear
3:52 AM 79.0 °F - 63.0 °F 58% 29.94 in 10.0 mi South 6.9 mph - N/A   Clear
4:52 AM 77.0 °F - 63.0 °F 62% 29.95 in 10.0 mi ESE 4.6 mph - N/A   Clear
5:52 AM 77.0 °F - 64.0 °F 64% 29.98 in 10.0 mi Calm Calm - N/A   Mostly Cloudy
6:52 AM 75.0 °F - 64.0 °F 69% 29.98 in 10.0 mi SE 6.9 mph - N/A   Partly Cloudy
7:52 AM 77.0 °F - 64.9 °F 66% 29.98 in 10.0 mi SSE 9.2 mph - N/A   Clear
8:52 AM 82.0 °F 83.4 °F 64.0 °F 54% 29.99 in 10.0 mi South 17.3 mph 21.9 mph N/A   Clear
9:52 AM 82.9 °F 84.4 °F 64.0 °F 53% 29.99 in 10.0 mi South 13.8 mph 23.0 mph N/A   Clear
10:52 AM 89.1 °F 90.3 °F 64.0 °F 43% 29.98 in 9.0 mi SSW 16.1 mph 24.2 mph N/A   Clear
11:52 AM 95.0 °F 95.2 °F 60.8 °F 32% 30.04 in 10.0 mi SSW 17.3 mph - N/A   Clear
12:52 PM 98.1 °F 99.1 °F 62.1 °F 30% 29.94 in 10.0 mi SSW 13.8 mph 21.9 mph N/A   Clear
1:52 PM 99.0 °F 99.5 °F 60.1 °F 28% 29.92 in 10.0 mi SSW 15.0 mph 23.0 mph N/A   Clear
2:52 PM 100.9 °F 100.5 °F 57.9 °F 24% 29.91 in 10.0 mi SSE 15.0 mph 24.2 mph N/A   Clear
3:52 PM 99.0 °F 98.1 °F 57.9 °F 25% 29.90 in 10.0 mi South 20.7 mph 32.2 mph N/A   Clear
4:52 PM 100.0 °F 99.2 °F 57.0 °F 24% 29.88 in 10.0 mi South 16.1 mph - N/A   Clear
5:52 PM 100.0 °F 99.2 °F 57.0 °F 24% 29.87 in 10.0 mi South 15.0 mph 26.5 mph N/A   Clear
6:52 PM 99.0 °F 98.1 °F 57.9 °F 25% 29.87 in 10.0 mi South 17.3 mph 21.9 mph N/A   Clear
7:52 PM 96.1 °F 96.4 °F 61.0 °F 31% 29.87 in 10.0 mi South 15.0 mph 23.0 mph N/A   Clear
8:52 PM 91.9 °F 91.8 °F 61.0 °F 35% 29.87 in 10.0 mi SSE 15.0 mph - N/A   Clear
9:52 PM 88.0 °F 88.7 °F 63.0 °F 43% 29.90 in 10.0 mi SSE 12.7 mph - N/A   Clear
10:52 PM 87.1 °F 88.3 °F 64.0 °F 46% 29.91 in 10.0 mi SSE 17.3 mph - N/A   Clear
11:52 PM 84.9 °F 86.6 °F 64.9 °F 51% 30.00 in 10.0 mi South 15.0 mph - N/A   Clear